| time (UTC) | temp F | wind direction | speed MPH | gust MPH | rain 1hr in | rain 24hr in | rain mn in | humidity % | barometer mb |
| 20260504050538 | 66 | 352 | 9.0 | 23.0 | 0.00 | 0.00 | 0.00 | 57 | 1009.8 |
| 20260504050532 | 66 | 18 | 9.0 | 21.0 | 0.00 | 0.00 | 0.00 | 57 | 1009.9 |
| 20260504045531 | 66 | 324 | 8.0 | 23.0 | 0.00 | 0.00 | 0.00 | 57 | 1009.9 |
| 20260504045031 | 66 | 353 | 8.0 | 22.0 | 0.00 | 0.00 | 0.00 | 58 | 1009.8 |
| 20260504044529 | 66 | 344 | 9.0 | 22.0 | 0.00 | 0.00 | 0.00 | 58 | 1009.8 |
| 20260504044030 | 66 | 350 | 9.0 | 20.0 | 0.00 | 0.00 | 0.00 | 58 | 1009.8 |
| 20260504043529 | 66 | 330 | 7.0 | 19.0 | 0.00 | 0.00 | 0.00 | 57 | 1009.8 |
| 20260504043036 | 66 | 270 | 6.0 | 17.0 | 0.00 | 0.00 | 0.00 | 57 | 1009.8 |
| 20260504043027 | 66 | 318 | 6.0 | 13.0 | 0.00 | 0.00 | 0.00 | 57 | 1009.8 |
| 20260504042528 | 66 | 280 | 7.0 | 17.0 | 0.00 | 0.00 | 0.00 | 57 | 1009.9 |
| 20260504041524 | 67 | 15 | 7.0 | 17.0 | 0.00 | 0.00 | 0.00 | 57 | 1009.7 |
| 20260504041024 | 66 | 335 | 7.0 | 17.0 | 0.00 | 0.00 | 0.00 | 57 | 1009.7 |
| 20260504040528 | 66 | 352 | 7.0 | 16.0 | 0.00 | 0.00 | 0.00 | 56 | 1009.7 |
| 20260504040026 | 66 | 10 | 7.0 | 23.0 | 0.00 | 0.00 | 0.00 | 56 | 1009.7 |
| 20260504035525 | 66 | 333 | 8.0 | 23.0 | 0.00 | 0.00 | 0.00 | 57 | 1009.6 |
| 20260504035025 | 66 | 326 | 7.0 | 18.0 | 0.00 | 0.00 | 0.00 | 56 | 1009.7 |
| 20260504034526 | 66 | 333 | 6.0 | 17.0 | 0.00 | 0.00 | 0.00 | 57 | 1009.5 |
| 20260504034027 | 66 | 316 | 7.0 | 17.0 | 0.00 | 0.00 | 0.00 | 56 | 1009.7 |
| 20260504033525 | 66 | 353 | 7.0 | 17.0 | 0.00 | 0.00 | 0.00 | 56 | 1009.8 |
| 20260504033030 | 66 | 39 | 8.0 | 18.0 | 0.00 | 0.00 | 0.00 | 56 | 1010.0 |
| 20260504033025 | 66 | 351 | 7.0 | 17.0 | 0.00 | 0.00 | 0.00 | 56 | 1009.8 |
| 20260504032024 | 66 | 354 | 8.0 | 21.0 | 0.00 | 0.00 | 0.00 | 55 | 1009.8 |
| 20260504031526 | 66 | 333 | 8.0 | 21.0 | 0.00 | 0.00 | 0.00 | 54 | 1010.0 |
| 20260504031023 | 67 | 352 | 7.0 | 16.0 | 0.00 | 0.00 | 0.00 | 54 | 1010.0 |
| 20260504030524 | 67 | 307 | 8.0 | 23.0 | 0.00 | 0.00 | 0.00 | 55 | 1010.0 |
| 20260504030023 | 66 | 326 | 8.0 | 23.0 | 0.00 | 0.00 | 0.00 | 56 | 1010.1 |
| 20260504025523 | 66 | 323 | 7.0 | 23.0 | 0.00 | 0.00 | 0.00 | 56 | 1010.2 |
| 20260504025025 | 65 | 296 | 6.0 | 15.0 | 0.00 | 0.00 | 0.00 | 58 | 1010.3 |
| 20260504024530 | 65 | 4 | 9.0 | 21.0 | 0.00 | 0.00 | 0.00 | 59 | 1010.6 |
| 20260504024523 | 65 | 16 | 7.0 | 21.0 | 0.00 | 0.00 | 0.00 | 58 | 1010.5 |
| 20260504023523 | 65 | 335 | 9.0 | 19.0 | 0.00 | 0.00 | 0.00 | 58 | 1010.7 |
| 20260504023029 | 65 | 326 | 7.0 | 18.0 | 0.00 | 0.00 | 0.00 | 59 | 1010.7 |
| 20260504023023 | 65 | 351 | 8.0 | 18.0 | 0.00 | 0.00 | 0.00 | 59 | 1010.8 |
| 20260504022022 | 65 | 349 | 7.0 | 18.0 | 0.00 | 0.00 | 0.00 | 59 | 1010.9 |
| 20260504021522 | 65 | 21 | 8.0 | 18.0 | 0.00 | 0.00 | 0.00 | 60 | 1010.9 |
| 20260504021021 | 64 | 293 | 8.0 | 21.0 | 0.00 | 0.00 | 0.00 | 60 | 1011.0 |
| 20260504020522 | 64 | 349 | 7.0 | 21.0 | 0.00 | 0.00 | 0.00 | 60 | 1011.1 |
| 20260504020027 | 64 | 352 | 7.0 | 26.0 | 0.00 | 0.00 | 0.00 | 60 | 1011.2 |
| 20260504020021 | 65 | 14 | 7.0 | 26.0 | 0.00 | 0.00 | 0.00 | 60 | 1011.1 |
| 20260504015650 | 64 | 296 | 8.0 | 26.0 | 0.00 | 0.01 | 0.00 | 60 | 1011.3 |
| 20260504015151 | 64 | 291 | 8.0 | 26.0 | 0.00 | 0.01 | 0.00 | 62 | 1011.4 |
| 20260504014020 | 64 | 35 | 7.0 | 15.0 | 0.00 | 0.01 | 0.00 | 61 | 1011.4 |
| 20260504013522 | 64 | 308 | 7.0 | 16.0 | 0.00 | 0.01 | 0.00 | 62 | 1011.5 |
| 20260504013022 | 63 | 310 | 9.0 | 17.0 | 0.00 | 0.01 | 0.00 | 63 | 1011.5 |
| 20260504012526 | 63 | 328 | 8.0 | 26.0 | 0.00 | 0.01 | 0.00 | 63 | 1011.4 |
| 20260504012520 | 63 | 345 | 9.0 | 26.0 | 0.00 | 0.01 | 0.00 | 64 | 1011.5 |
| 20260504011518 | 63 | 346 | 7.0 | 21.0 | 0.00 | 0.02 | 0.00 | 64 | 1011.5 |
| 20260504011018 | 63 | 13 | 8.0 | 17.0 | 0.00 | 0.04 | 0.00 | 65 | 1011.5 |
| 20260504010519 | 62 | 292 | 7.0 | 17.0 | 0.00 | 0.04 | 0.00 | 66 | 1011.5 |
| 20260504010025 | 62 | 285 | 7.0 | 20.0 | 0.00 | 0.06 | 0.00 | 67 | 1011.7 |
| 20260504010021 | 62 | 344 | 6.0 | 18.0 | 0.00 | 0.06 | 0.00 | 66 | 1011.6 |
| 20260504005020 | 62 | 352 | 8.0 | 20.0 | 0.00 | 0.06 | 0.00 | 67 | 1011.7 |
| 20260504004516 | 62 | 326 | 8.0 | 20.0 | 0.00 | 0.06 | 0.00 | 67 | 1011.7 |
| 20260504004017 | 62 | 344 | 8.0 | 20.0 | 0.00 | 0.06 | 0.00 | 67 | 1011.6 |
| 20260504003524 | 62 | 348 | 7.0 | 22.0 | 0.00 | 0.09 | 0.00 | 68 | 1011.5 |
| 20260504003518 | 62 | 311 | 7.0 | 19.0 | 0.00 | 0.06 | 0.00 | 67 | 1011.6 |
| 20260504003017 | 62 | 349 | 6.0 | 19.0 | 0.00 | 0.07 | 0.00 | 66 | 1011.6 |
| 20260504002019 | 62 | 339 | 8.0 | 22.0 | 0.00 | 0.10 | 0.00 | 68 | 1011.6 |
| 20260504002015 | 62 | 333 | 8.0 | 15.0 | 0.00 | 0.11 | 0.00 | 68 | 1011.6 |
| 20260504001014 | 62 | 303 | 7.0 | 16.0 | 0.00 | 0.12 | 0.00 | 68 | 1011.7 |
| 20260504000516 | 62 | 340 | 7.0 | 18.0 | 0.00 | 0.13 | 0.00 | 69 | 1011.7 |
| 20260504000012 | 62 | 26 | 6.0 | 18.0 | 0.00 | 0.15 | 0.00 | 69 | 1011.7 |
| 20260503235517 | 62 | 19 | 7.0 | 17.0 | 0.00 | 0.17 | 0.00 | 69 | 1011.7 |
| 20260503235511 | 62 | 340 | 6.0 | 17.0 | 0.00 | 0.18 | 0.00 | 69 | 1011.6 |
| 20260503234510 | 62 | 303 | 5.0 | 17.0 | 0.00 | 0.19 | 0.00 | 70 | 1011.6 |
| 20260503234011 | 62 | 301 | 5.0 | 17.0 | 0.00 | 0.21 | 0.00 | 70 | 1011.6 |
| 20260503233517 | 61 | 314 | 8.0 | 18.0 | 0.00 | 0.21 | 0.00 | 71 | 1011.7 |
| 20260503233512 | 61 | 8 | 7.0 | 18.0 | 0.00 | 0.21 | 0.00 | 70 | 1011.8 |
| 20260503232513 | 61 | 345 | 6.0 | 16.0 | 0.00 | 0.22 | 0.00 | 71 | 1011.7 |
| 20260503232012 | 61 | 1 | 6.0 | 16.0 | 0.00 | 0.22 | 0.00 | 71 | 1011.7 |
| 20260503231512 | 61 | 336 | 6.0 | 14.0 | 0.00 | 0.22 | 0.00 | 71 | 1011.7 |
| 20260503231010 | 61 | 332 | 5.0 | 14.0 | 0.00 | 0.22 | 0.00 | 71 | 1011.8 |
| 20260503230511 | 61 | 329 | 5.0 | 14.0 | 0.00 | 0.22 | 0.00 | 72 | 1011.8 |
| 20260503230011 | 60 | 324 | 6.0 | 17.0 | 0.00 | 0.22 | 0.00 | 72 | 1011.9 |
| 20260503225513 | 60 | 342 | 6.0 | 17.0 | 0.00 | 0.22 | 0.00 | 72 | 1011.8 |
| 20260503225011 | 60 | 351 | 6.0 | 15.0 | 0.00 | 0.22 | 0.00 | 73 | 1011.8 |
| 20260503224512 | 60 | 343 | 6.0 | 15.0 | 0.00 | 0.22 | 0.00 | 73 | 1011.8 |
| 20260503224017 | 60 | 0 | 6.0 | 19.0 | 0.00 | 0.22 | 0.00 | 74 | 1011.8 |
| 20260503224011 | 60 | 312 | 6.0 | 19.0 | 0.00 | 0.22 | 0.00 | 74 | 1011.8 |
| 20260503223637 | 60 | 343 | 6.0 | 14.0 | 0.00 | 0.22 | 0.00 | 74 | 1011.9 |
| 20260503222510 | 60 | 355 | 5.0 | 13.0 | 0.00 | 0.22 | 0.00 | 74 | 1012.0 |
| 20260503222011 | 59 | 347 | 5.0 | 19.0 | 0.00 | 0.22 | 0.00 | 74 | 1012.1 |
| 20260503221511 | 59 | 343 | 6.0 | 19.0 | 0.00 | 0.22 | 0.00 | 74 | 1011.9 |
| 20260503221020 | 59 | 335 | 5.0 | 13.0 | 0.00 | 0.22 | 0.00 | 75 | 1012.1 |
| 20260503221010 | 59 | 322 | 5.0 | 15.0 | 0.00 | 0.22 | 0.00 | 75 | 1012.0 |
| 20260503220512 | 59 | 324 | 5.0 | 15.0 | 0.00 | 0.22 | 0.00 | 75 | 1011.9 |
| 20260503215509 | 59 | 353 | 5.0 | 19.0 | 0.00 | 0.22 | 0.00 | 75 | 1012.0 |
| 20260503215008 | 59 | 340 | 5.0 | 19.0 | 0.00 | 0.22 | 0.00 | 75 | 1012.0 |
| 20260503214508 | 58 | 345 | 5.0 | 15.0 | 0.00 | 0.22 | 0.00 | 75 | 1011.9 |
| 20260503214008 | 58 | 342 | 4.0 | 12.0 | 0.00 | 0.22 | 0.00 | 75 | 1011.9 |
| 20260503213510 | 58 | 352 | 4.0 | 13.0 | 0.00 | 0.22 | 0.00 | 75 | 1011.9 |
| 20260503213009 | 58 | 343 | 4.0 | 13.0 | 0.00 | 0.22 | 0.00 | 75 | 1011.9 |
| 20260503212506 | 58 | 341 | 3.0 | 10.0 | 0.00 | 0.22 | 0.00 | 75 | 1011.9 |
| 20260503212013 | 58 | 1 | 3.0 | 10.0 | 0.00 | 0.22 | 0.00 | 75 | 1011.7 |
| 20260503212007 | 58 | 307 | 3.0 | 10.0 | 0.00 | 0.22 | 0.00 | 75 | 1011.7 |
| 20260503211005 | 58 | 328 | 2.0 | 7.0 | 0.00 | 0.22 | 0.00 | 75 | 1011.7 |
| 20260503210512 | 58 | 322 | 3.0 | 9.0 | 0.00 | 0.22 | 0.00 | 75 | 1011.6 |
| 20260503210506 | 58 | 332 | 2.0 | 9.0 | 0.00 | 0.22 | 0.00 | 75 | 1011.6 |
| 20260503210133 | 58 | 348 | 3.0 | 11.0 | 0.00 | 0.22 | 0.00 | 76 | 1011.7 |
| 20260503205007 | 58 | 335 | 3.0 | 11.0 | 0.00 | 0.22 | 0.00 | 76 | 1011.7 |
| 20260503204509 | 58 | 335 | 3.0 | 8.0 | 0.00 | 0.22 | 0.00 | 76 | 1011.7 |
| 20260503204008 | 58 | 339 | 3.0 | 7.0 | 0.00 | 0.22 | 0.00 | 76 | 1011.7 |
| 20260503203505 | 58 | 327 | 2.0 | 7.0 | 0.00 | 0.22 | 0.00 | 77 | 1011.6 |
| 20260503203005 | 58 | 330 | 2.0 | 8.0 | 0.00 | 0.22 | 0.00 | 77 | 1011.6 |
| 20260503202504 | 58 | 330 | 2.0 | 8.0 | 0.00 | 0.22 | 0.00 | 77 | 1011.6 |
| 20260503202002 | 58 | 318 | 2.0 | 9.0 | 0.00 | 0.22 | 0.00 | 77 | 1011.6 |
| 20260503201504 | 58 | 312 | 2.0 | 9.0 | 0.00 | 0.22 | 0.00 | 77 | 1011.5 |
| 20260503201003 | 58 | 328 | 3.0 | 7.0 | 0.00 | 0.22 | 0.00 | 77 | 1011.5 |
| 20260503200503 | 58 | 333 | 3.0 | 9.0 | 0.00 | 0.22 | 0.00 | 78 | 1011.4 |
| 20260503200003 | 58 | 318 | 2.0 | 9.0 | 0.00 | 0.22 | 0.00 | 78 | 1011.4 |
| 20260503195503 | 58 | 326 | 3.0 | 8.0 | 0.00 | 0.22 | 0.00 | 78 | 1011.4 |
| 20260503195001 | 58 | 326 | 4.0 | 12.0 | 0.00 | 0.22 | 0.00 | 78 | 1011.4 |
| 20260503194502 | 57 | 336 | 3.0 | 15.0 | 0.00 | 0.22 | 0.00 | 79 | 1011.5 |
| 20260503194000 | 57 | 348 | 3.0 | 15.0 | 0.00 | 0.22 | 0.00 | 79 | 1011.5 |
| 20260503193501 | 57 | 343 | 3.0 | 10.0 | 0.00 | 0.22 | 0.00 | 80 | 1011.4 |
| 20260503193007 | 57 | 344 | 2.0 | 6.0 | 0.00 | 0.22 | 0.00 | 80 | 1011.5 |
| 20260503193001 | 57 | 339 | 3.0 | 6.0 | 0.00 | 0.22 | 0.00 | 80 | 1011.5 |
| 20260503192628 | 57 | 356 | 1.0 | 5.0 | 0.00 | 0.22 | 0.00 | 81 | 1011.5 |
| 20260503191459 | 57 | 357 | 1.0 | 5.0 | 0.00 | 0.22 | 0.00 | 81 | 1011.7 |
| 20260503190959 | 57 | 347 | 2.0 | 6.0 | 0.00 | 0.22 | 0.00 | 82 | 1011.8 |
| 20260503190506 | 56 | 351 | 1.0 | 5.0 | 0.00 | 0.22 | 0.00 | 82 | 1011.9 |
| 20260503190501 | 57 | 347 | 2.0 | 6.0 | 0.00 | 0.22 | 0.00 | 82 | 1011.9 |
| 20260503185505 | 56 | 48 | 0.0 | 6.0 | 0.00 | 0.22 | 0.00 | 82 | 1012.0 |
| 20260503185459 | 56 | 2 | 1.0 | 6.0 | 0.00 | 0.22 | 0.00 | 82 | 1011.9 |
| 20260503184457 | 56 | 330 | 0.0 | 3.0 | 0.00 | 0.22 | 0.00 | 82 | 1012.1 |
| 20260503183959 | 56 | 330 | 0.0 | 3.0 | 0.00 | 0.22 | 0.00 | 82 | 1012.0 |
| 20260503183458 | 57 | 328 | 1.0 | 2.0 | 0.00 | 0.22 | 0.00 | 82 | 1012.1 |
| 20260503182959 | 57 | 328 | 1.0 | 3.0 | 0.00 | 0.22 | 0.00 | 82 | 1012.1 |
| 20260503182459 | 57 | 327 | 1.0 | 4.0 | 0.00 | 0.22 | 0.00 | 82 | 1012.1 |
| 20260503181956 | 57 | 327 | 2.0 | 4.0 | 0.00 | 0.22 | 0.00 | 82 | 1012.1 |
| 20260503181455 | 57 | 327 | 2.0 | 9.0 | 0.00 | 0.22 | 0.00 | 82 | 1012.1 |
| 20260503180955 | 57 | 326 | 3.0 | 9.0 | 0.00 | 0.22 | 0.00 | 82 | 1012.2 |
| 20260503180455 | 57 | 351 | 2.0 | 5.0 | 0.00 | 0.22 | 0.00 | 82 | 1012.2 |
| 20260503175955 | 57 | 351 | 2.0 | 5.0 | 0.00 | 0.22 | 0.00 | 82 | 1012.3 |
| 20260503175455 | 57 | 351 | 2.0 | 5.0 | 0.00 | 0.22 | 0.00 | 82 | 1012.3 |
| 20260503174957 | 57 | 352 | 2.0 | 6.0 | 0.00 | 0.22 | 0.00 | 82 | 1012.4 |
| 20260503174456 | 57 | 333 | 2.0 | 6.0 | 0.00 | 0.22 | 0.00 | 81 | 1012.4 |
| 20260503174124 | 58 | 320 | 2.0 | 5.0 | 0.00 | 0.22 | 0.00 | 81 | 1012.4 |
| 20260503174002 | 57 | 339 | 2.0 | 5.0 | 0.00 | 0.22 | 0.00 | 81 | 1012.4 |
| 20260503173956 | 57 | 345 | 2.0 | 5.0 | 0.00 | 0.22 | 0.00 | 81 | 1012.4 |
| 20260503172457 | 58 | 335 | 2.0 | 5.0 | 0.00 | 0.22 | 0.00 | 81 | 1012.5 |
| 20260503171958 | 58 | 337 | 2.0 | 5.0 | 0.00 | 0.22 | 0.00 | 81 | 1012.5 |
| 20260503171953 | 58 | 338 | 2.0 | 5.0 | 0.00 | 0.22 | 0.00 | 81 | 1012.5 |
| 20260503170954 | 58 | 338 | 2.0 | 5.0 | 0.00 | 0.22 | 0.00 | 81 | 1012.6 |
| 20260503170501 | 58 | 336 | 2.0 | 9.0 | 0.00 | 0.22 | 0.00 | 81 | 1012.6 |
| 20260503170454 | 58 | 337 | 2.0 | 5.0 | 0.00 | 0.22 | 0.00 | 81 | 1012.5 |
| 20260503150941 | 59 | 37 | 2.0 | 7.0 | 0.00 | 0.22 | 0.00 | 81 | 1012.8 |
| 20260503150441 | 59 | 341 | 2.0 | 6.0 | 0.00 | 0.22 | 0.00 | 81 | 1012.7 |
| 20260503130937 | 60 | 332 | 4.0 | 9.0 | 0.00 | 0.22 | 0.22 | 79 | 1013.3 |
| 20260503130435 | 60 | 327 | 3.0 | 9.0 | 0.00 | 0.22 | 0.22 | 78 | 1013.3 |
| 20260503110433 | 61 | 353 | 1.0 | 3.0 | 0.00 | 0.22 | 0.22 | 73 | 1013.1 |
| 20260503081415 | 63 | 295 | 2.0 | 7.0 | 0.00 | 0.22 | 0.22 | 63 | 1011.7 |
| 20260503080914 | 63 | 294 | 2.0 | 7.0 | 0.00 | 0.22 | 0.22 | 62 | 1011.7 |
| 20260503080413 | 63 | 293 | 2.0 | 9.0 | 0.00 | 0.22 | 0.22 | 61 | 1011.8 |
| 20260503072912 | 65 | 301 | 1.0 | 4.0 | 0.00 | 0.22 | 0.22 | 61 | 1011.6 |
| 20260503072413 | 65 | 301 | 2.0 | 6.0 | 0.00 | 0.22 | 0.22 | 61 | 1011.6 |
| 20260503071911 | 65 | 301 | 2.0 | 6.0 | 0.00 | 0.22 | 0.22 | 61 | 1011.6 |
| 20260503071413 | 65 | 301 | 2.0 | 6.0 | 0.00 | 0.22 | 0.22 | 60 | 1011.5 |
| 20260503070913 | 65 | 301 | 2.0 | 6.0 | 0.00 | 0.22 | 0.22 | 59 | 1011.4 |
| 20260503070413 | 66 | 301 | 2.0 | 8.0 | 0.00 | 0.22 | 0.22 | 58 | 1011.4 |